Flag for U.S.A. Weather past 2 weeks in St. Croix Falls, Wisconsin, U.S.A.

Now
60 °F

Fog.


Feels Like: 60 °F
Forecast: 54 / 82 °F
Wind: No wind

Location: L O Simenstad Municipal Airport

Current Time: Aug 20, 2014 at 4:31:30 AM

Latest Report: Aug 20, 2014 at 3:55 AM


Visibility: 0 mi

Pressure: 29.85 "Hg

Humidity: 100%

Dew point: 60 °F

Location of St. Croix FallsLocation

Historic Weather in St. Croix Falls — Graph

°F

St. Croix Falls temperature yesterday

Maximum temperature yesterday: 76 °F (at 6:15 PM)
Minimum temperature yesterday: 61 °F (at 4:55 AM)
Average temperature yesterday: 68 °F

Past Weeks' High & Low Weather Summary

 TemperatureHumidityPressure
High83 °F (Aug 7, 3:55 PM)100% (Aug 5, 3:15 AM)30.20 "Hg (Aug 5, 3:15 AM)
Low53 °F (Aug 6, 6:15 AM)30% (Aug 8, 3:35 PM)29.65 "Hg (Aug 18, 8:15 PM)
Average69 °F79%30.02 "Hg
* Reported Aug 5 3:15 AM — Aug 20 3:15 AM, St. Croix Falls, Weather by CustomWeather, © 2014

Note: Actual official high and low records may vary slightly from our data, if they occured in-between our weather recording intervals... More about our weather records

Advertising

St. Croix Falls weather history for previous 24 hours

 ConditionsComfort  
Time TempWeatherWind HumidityBarometerVisibility
3:15 AM
Aug 20
60 °FFog.No wind100%29.85 "Hg0 mi
2:55 AM60 °FFog.No wind100%29.85 "Hg3 mi
2:35 AM61 °FFog.No wind100%29.84 "Hg1 mi
2:15 AM61 °FFog.No wind100%29.84 "Hg1 mi
1:55 AM62 °FClear.No wind100%29.83 "Hg7 mi
1:15 AM62 °FFog.No wind100%29.83 "Hg1 mi
12:55 AM62 °FFog.No wind100%29.83 "Hg2 mi
12:35 AM62 °FFog.No wind100%29.83 "Hg4 mi
12:15 AM62 °FClear.No wind100%29.82 "Hg7 mi
11:55 PM
Aug 19
63 °FClear.No wind100%29.83 "Hg7 mi
11:15 PM65 °FClear.No wind100%29.82 "Hg10 mi
10:55 PM65 °FPassing clouds.3 mph100%29.81 "Hg10 mi
10:35 PM66 °FOvercast.No wind100%29.82 "Hg10 mi
10:15 PM66 °FMostly cloudy.No wind100%29.82 "Hg10 mi
9:55 PM67 °FMostly cloudy.No wind100%29.81 "Hg10 mi
9:15 PM68 °FPassing clouds.No wind95%29.81 "Hg10 mi
8:55 PM68 °FScattered clouds.No wind95%29.80 "Hg10 mi
8:35 PM69 °FSunny.No wind93%29.79 "Hg10 mi
8:15 PM70 °FSunny.No wind86%29.79 "Hg10 mi
7:55 PM72 °FSunny.No wind80%29.78 "Hg10 mi
7:35 PM72 °FSunny.No wind81%29.77 "Hg10 mi
7:15 PM72 °FSunny.3 mph74%29.77 "Hg10 mi
6:55 PM74 °FScattered clouds.No wind69%29.77 "Hg10 mi
6:35 PM75 °FScattered clouds.6 mph65%29.77 "Hg10 mi
6:15 PM76 °FScattered clouds.3 mph65%29.77 "Hg10 mi
5:55 PM76 °FBroken clouds.5 mph67%29.77 "Hg10 mi
5:35 PM74 °FMostly cloudy.5 mph68%29.77 "Hg10 mi
5:15 PM74 °FMostly cloudy.5 mph72%29.77 "Hg10 mi
4:55 PM74 °FCloudy.5 mph70%29.76 "Hg10 mi
4:35 PM73 °FMostly cloudy.No wind75%29.76 "Hg10 mi
3:55 PM73 °FRain. Cloudy.7 mph70%29.76 "Hg10 mi
3:35 PM75 °FCloudy.8 mph65%29.76 "Hg10 mi
3:15 PM75 °FBroken clouds.10 mph66%29.77 "Hg10 mi
2:55 PM76 °FBroken clouds.9 mph69%29.76 "Hg10 mi
2:15 PM74 °FCloudy.9 mph70%29.76 "Hg10 mi
1:55 PM75 °FCloudy.8 mph71%29.76 "Hg10 mi
1:35 PM72 °FCloudy.6 mph80%29.76 "Hg10 mi
1:15 PM72 °FCloudy.9 mph84%29.77 "Hg10 mi
12:55 PM72 °FMostly cloudy.10 mph79%29.77 "Hg10 mi
12:35 PM72 °FCloudy.3 mph82%29.77 "Hg10 mi
12:15 PM72 °FCloudy.6 mph80%29.77 "Hg10 mi
11:55 AM71 °FMore clouds than sun.7 mph83%29.78 "Hg10 mi
11:35 AM71 °FMostly cloudy.7 mph80%29.78 "Hg10 mi
11:15 AM71 °FMore clouds than sun.6 mph79%29.77 "Hg10 mi
10:55 AM70 °FMostly cloudy.7 mph87%29.77 "Hg10 mi
10:35 AM69 °FCloudy.7 mph93%29.77 "Hg10 mi
10:15 AM67 °FLow clouds.6 mph98%29.77 "Hg10 mi
9:55 AM67 °FLow clouds.6 mph99%29.76 "Hg10 mi
9:35 AM67 °FLow clouds.6 mph99%29.76 "Hg10 mi
9:15 AM66 °FLow clouds.6 mph100%29.75 "Hg10 mi
8:55 AM65 °FLow clouds.5 mph100%29.75 "Hg7 mi
8:35 AM64 °FLow clouds.5 mph100%29.75 "Hg10 mi
8:15 AM64 °FLow clouds.5 mph100%29.74 "Hg10 mi
7:55 AM63 °FLow clouds.5 mph100%29.74 "Hg10 mi
7:35 AM63 °FLow clouds.5 mph100%29.74 "Hg10 mi
7:15 AM63 °FLow clouds.5 mph100%29.73 "Hg10 mi
6:55 AM63 °FLow clouds.5 mph100%29.73 "Hg10 mi
6:15 AM62 °FLow clouds.No wind100%29.72 "Hg10 mi
5:55 AM62 °FLow clouds.No wind100%29.72 "Hg10 mi
5:35 AM62 °FPartly cloudy.No wind100%29.71 "Hg10 mi
5:15 AM61 °FPassing clouds.3 mph100%29.71 "Hg10 mi
4:55 AM61 °FClear.No wind100%29.71 "Hg10 mi
4:35 AM61 °FClear.5 mph100%29.70 "Hg7 mi
4:15 AM62 °FFog.5 mph100%29.69 "Hg4 mi
Weather by CustomWeather, © 2014

See weather overviewHow to use our weather pages